Pagrindinis puslapis
METAR-TAF:

METAR-TAF

Oro uostai :

Big Spring McMahon-Wrinkle Airport

Big Spring, Teksasas, Jungtinės Amerikos Valstijos

platuma: 32-12N, ilguma: 101-31W, Aukštis: 784 m

Dabartinis oras

Ataskaita buvo paskelbta 32 minutes, ne 03:15 UTC
Vėjas 13 kt iš Rytų
Temperatūra 19°C
Drėgmė 60%
Slėgis 1022 hPa
Matomumas: 16.1 km
Giedras dangus

METAR: KBPG 140315Z AUTO 09013KT 10SM CLR 19/11 A3018 RMK AO2 T01860112

Laikas: 22:47 (03:47 UTC)


TAF: trūkstamas

Orai ataskaitas ir orų prognozės (METAR, TAF).

turimą stotys yra geltonos ir raudonos taškus žemėlapyje.

Perkelti pele per norėdami pamatyti stoties vardą.

Tada spustelėkite, norėdami matyti oro stebėjimo ir prognozės.

Norėdami pakeisti žemėlapį: spustelėkite ant žalios mygtukų su juodo kryžiaus žemyn,; žalią mygtuką su brūkšneliu, jei norite nutolinti; arba žalių rodyklių gretimoms žemėlapius.


METAR-TAF: